Hourly Data Report for June 18, 2021

BORDEN AWOS
ONTARIO
Current Station Operator: DND

44°16'20.000" N
79°54'42.000" W
222.50 m
611B002
71534
YBN

Download Data

Hourly Data (June 2021)
Hourly Data Report for June 18, 2021
TIME
LST
Temp Definition
°C
Dew Point Definition
°C
Rel Hum Definition
%
Precip. Amount Definition
mm

Wind Dir Definition
10's deg

Wind Spd Definition
km/h
Visibility Definition
km
Stn Press Definition
kPa
Hmdx Definition


Wind Chill Definition


Weather Definition


00:00 16.7 8.8 60   17 11 14.5 98.58     LegendNANA
01:00 18.0 8.4 53   18 15 14.5 98.51     LegendNANA
02:00 19.1 8.6 51   18 17 14.5 98.45     LegendNANA
03:00 19.4 8.7 50   17 15 14.5 98.34     LegendNANA
04:00 17.8 11.9 68   22 13 14.5 98.34     Rain
05:00 19.4 11.6 61   19 19 14.5 98.29     LegendNANA
06:00 19.0 11.8 63   17 20 14.5 98.26     Rain
07:00 18.5 12.5 68   13 11 14.5 98.30     LegendNANA
08:00 20.0 13.0 64   17 9 14.5 98.29     LegendNANA
09:00 20.4 14.1 67   17 13 14.5 98.28     Rain
10:00 20.4 15.1 72   19 11 14.5 98.25     LegendNANA
11:00 21.2 15.5 70   22 13 14.5 98.18 25   Drizzle
12:00 21.9 16.2 70   23 19 14.5 98.13 27   LegendNANA
13:00 23.9 16.5 63   22 35 14.5 98.08 29   LegendNANA
14:00 25.8 16.5 57   21 28 14.5 97.97 31   LegendNANA
15:00 25.5 15.9 55   21 33 14.5 97.91 30   LegendNANA
16:00 25.8 16.6 57   21 20 14.5 97.88 31   LegendNANA
17:00 25.6 17.0 59   23 15 14.5 97.82 31   LegendNANA
18:00 26.1 17.1 58   24 26 14.5 97.78 31   LegendNANA
19:00 24.8 16.8 61   25 15 14.5 97.83 30   LegendNANA
20:00 22.9 17.1 70   26 7 14.5 97.81 28   LegendNANA
21:00 22.0 17.2 74   24 13 14.5 97.81 27   LegendNANA
22:00 20.0 16.9 82   27 7 14.5 97.90 25   Rain
23:00 19.0 15.4 80   27 6 14.5 97.96     LegendNANA

Notes on Data Quality.

Legend

  • E = Estimated
  • M = Missing
  • NA = Not Available*
  • [empty] = Indicates an unobserved value
Date modified: